When you browse on this site, cookies collect data to enhance your experience and personalize the content and advertising you see.
Visit our Privacy Policy to learn more. By continuing to use the site, you agree to this use of cookies and data.
  • en Suisse
  • Liste des pays
  • À 7 jours
  • Température de l'eau
  • Carte météo
  • Widgets météo
  • user-avatar
    Se connecter

    Météo par heure à Lenkoran

    Ce jour, 4 Avril, Samedi

    Heure Température Précipitation Vent Pression Humidité
    00:00 +5°C° 0 mm 1 m/s 631 mmHg 85%
    01:00 +5°C° 0 mm 1 m/s 631 mmHg 84%
    02:00 +5°C° 0 mm 1 m/s 631 mmHg 84%
    03:00 +5°C° 0 mm 1 m/s 631 mmHg 85%
    04:00 +4°C° 0.1 mm 2 m/s 631 mmHg 86%
    05:00 +4°C° 0.1 mm 2 m/s 631 mmHg 86%
    06:00 +4°C° 0.1 mm 2 m/s 631 mmHg 87%
    07:00 +4°C° 0.1 mm 3 m/s 632 mmHg 82%
    08:00 +5°C° 0.1 mm 3 m/s 632 mmHg 77%
    09:00 +8°C° 0.1 mm 3 m/s 633 mmHg 72%
    10:00 +8°C° 0.2 mm 3 m/s 633 mmHg 69%
    11:00 +8°C° 0.2 mm 3 m/s 633 mmHg 66%
    12:00 +9°C° 0.2 mm 3 m/s 633 mmHg 63%
    13:00 +8°C° 0.3 mm 3 m/s 633 mmHg 69%
    14:00 +7°C° 0.3 mm 3 m/s 633 mmHg 76%
    15:00 +5°C° 0.3 mm 3 m/s 632 mmHg 82%
    16:00 +4°C° 1.6 mm 3 m/s 633 mmHg 86%
    17:00 +3°C° 1.6 mm 3 m/s 633 mmHg 90%
    18:00 +2°C° 1.6 mm 3 m/s 633 mmHg 94%
    19:00 +3°C° 1.3 mm 2 m/s 634 mmHg 94%
    20:00 +3°C° 1.3 mm 2 m/s 634 mmHg 94%
    21:00 +4°C° 1.3 mm 1 m/s 635 mmHg 93%
    22:00 +4°C° 0.1 mm 1 m/s 635 mmHg 93%
    23:00 +4°C° 0.1 mm 1 m/s 635 mmHg 92%

    Demain, 5 Avril, Dimanche

    Heure Température Précipitation Vent Pression Humidité
    00:00 +4°C° 0.1 mm 1 m/s 636 mmHg 92%
    01:00 +4°C° 0 mm 1 m/s 636 mmHg 91%
    02:00 +4°C° 0 mm 1 m/s 636 mmHg 90%
    03:00 +4°C° 0 mm 1 m/s 636 mmHg 89%
    04:00 +4°C° 0 mm 1 m/s 636 mmHg 89%
    05:00 +3°C° 0 mm 1 m/s 636 mmHg 89%
    06:00 +3°C° 0 mm 1 m/s 636 mmHg 89%
    07:00 +5°C° 0 mm 1 m/s 637 mmHg 82%
    08:00 +6°C° 0 mm 1 m/s 637 mmHg 76%
    09:00 +8°C° 0 mm 1 m/s 638 mmHg 69%
    10:00 +8°C° 0 mm 1 m/s 638 mmHg 66%
    11:00 +9°C° 0 mm 1 m/s 638 mmHg 63%
    12:00 +9°C° 0 mm 2 m/s 638 mmHg 59%
    13:00 +10°C° 0 mm 2 m/s 637 mmHg 58%
    14:00 +10°C° 0 mm 2 m/s 637 mmHg 57%
    15:00 +12°C° 0 mm 2 m/s 637 mmHg 55%
    16:00 +10°C° 0 mm 2 m/s 636 mmHg 62%
    17:00 +9°C° 0 mm 1 m/s 636 mmHg 69%
    18:00 +8°C° 0 mm 1 m/s 635 mmHg 76%
    19:00 +8°C° 0 mm 1 m/s 635 mmHg 73%
    20:00 +8°C° 0 mm 1 m/s 635 mmHg 71%
    21:00 +7°C° 0 mm 1 m/s 635 mmHg 68%
    22:00 +7°C° 0 mm 1 m/s 634 mmHg 68%
    23:00 +7°C° 0 mm 1 m/s 634 mmHg 67%

    Après-demain, 6 Avril, Lundi

    Heure Température Précipitation Vent Pression Humidité
    00:00 +7°C° 0 mm 1 m/s 634 mmHg 67%
    01:00 +7°C° 0 mm 1 m/s 633 mmHg 66%
    02:00 +6°C° 0 mm 1 m/s 633 mmHg 64%
    03:00 +6°C° 0 mm 1 m/s 633 mmHg 63%
    04:00 +6°C° 0 mm 1 m/s 633 mmHg 63%
    05:00 +6°C° 0 mm 1 m/s 633 mmHg 63%
    06:00 +7°C° 0 mm 1 m/s 634 mmHg 62%
    07:00 +8°C° 0 mm 1 m/s 634 mmHg 61%
    08:00 +9°C° 0 mm 1 m/s 635 mmHg 59%
    09:00 +10°C° 0 mm 2 m/s 636 mmHg 58%
    10:00 +9°C° 0 mm 3 m/s 636 mmHg 66%
    11:00 +7°C° 0 mm 4 m/s 636 mmHg 74%
    12:00 +6°C° 0 mm 5 m/s 636 mmHg 81%
    13:00 +3°C° 0.2 mm 5 m/s 636 mmHg 84%
    14:00 +3°C° 0.2 mm 4 m/s 635 mmHg 86%
    15:00 +1°C° 0.2 mm 4 m/s 635 mmHg 89%
    16:00 0°C° 1 mm 4 m/s 635 mmHg 91%
    17:00 0°C° 1 mm 4 m/s 635 mmHg 93%
    18:00 -1°C° 1 mm 4 m/s 635 mmHg 95%
    19:00 -1°C° 1.8 mm 4 m/s 635 mmHg 95%
    20:00 -2°C° 1.8 mm 4 m/s 635 mmHg 95%
    21:00 -3°C° 1.8 mm 4 m/s 636 mmHg 95%
    22:00 -3°C° 2.3 mm 4 m/s 635 mmHg 95%
    23:00 -4°C° 2.3 mm 3 m/s 635 mmHg 96%

    7 Avril, Mardi

    Heure Température Précipitation Vent Pression Humidité
    00:00 -5°C° 2.3 mm 3 m/s 634 mmHg 97%
    01:00 -5°C° 2.8 mm 3 m/s 634 mmHg 97%
    02:00 -5°C° 2.8 mm 2 m/s 634 mmHg 97%
    03:00 -5°C° 2.8 mm 2 m/s 634 mmHg 97%
    04:00 -5°C° 1.3 mm 2 m/s 635 mmHg 97%
    05:00 -5°C° 1.3 mm 2 m/s 635 mmHg 97%
    06:00 -5°C° 1.3 mm 2 m/s 635 mmHg 97%
    07:00 -4°C° 0.8 mm 2 m/s 635 mmHg 97%
    08:00 -4°C° 0.8 mm 2 m/s 635 mmHg 97%
    09:00 -4°C° 0.8 mm 2 m/s 636 mmHg 98%
    10:00 -3°C° 0.8 mm 2 m/s 636 mmHg 98%
    11:00 -3°C° 0.8 mm 2 m/s 636 mmHg 98%
    12:00 -3°C° 0.8 mm 2 m/s 635 mmHg 98%
    13:00 -3°C° 0.7 mm 2 m/s 635 mmHg 98%
    14:00 -3°C° 0.7 mm 2 m/s 635 mmHg 98%
    15:00 -3°C° 0.7 mm 2 m/s 635 mmHg 98%
    16:00 -3°C° 0.5 mm 2 m/s 635 mmHg 98%
    17:00 -3°C° 0.5 mm 2 m/s 635 mmHg 98%
    18:00 -3°C° 0.5 mm 2 m/s 635 mmHg 97%
    19:00 -3°C° 0.8 mm 2 m/s 636 mmHg 98%
    20:00 -3°C° 0.8 mm 2 m/s 637 mmHg 98%
    21:00 -4°C° 0.8 mm 3 m/s 637 mmHg 98%
    22:00 -4°C° 1.2 mm 3 m/s 637 mmHg 98%
    23:00 -4°C° 1.2 mm 3 m/s 637 mmHg 98%

    8 Avril, Mercredi

    Heure Température Précipitation Vent Pression Humidité
    00:00 -4°C° 1.2 mm 3 m/s 638 mmHg 98%
    01:00 -4°C° 1.2 mm 3 m/s 637 mmHg 98%
    02:00 -5°C° 1.2 mm 3 m/s 637 mmHg 97%
    03:00 -5°C° 1.2 mm 3 m/s 637 mmHg 97%
    04:00 -5°C° 0.7 mm 3 m/s 637 mmHg 97%
    05:00 -5°C° 0.7 mm 3 m/s 637 mmHg 97%
    06:00 -4°C° 0.7 mm 2 m/s 637 mmHg 97%
    07:00 -4°C° 0.5 mm 2 m/s 637 mmHg 97%
    08:00 -4°C° 0.5 mm 2 m/s 637 mmHg 97%
    09:00 -3°C° 0.5 mm 2 m/s 637 mmHg 97%
    10:00 -3°C° 0.3 mm 2 m/s 637 mmHg 97%
    11:00 -2°C° 0.3 mm 2 m/s 636 mmHg 97%
    12:00 -2°C° 0.3 mm 2 m/s 636 mmHg 97%
    13:00 -2°C° 0.1 mm 2 m/s 635 mmHg 97%
    14:00 -2°C° 0.1 mm 2 m/s 635 mmHg 97%
    15:00 -2°C° 0.1 mm 2 m/s 635 mmHg 97%
    16:00 -2°C° 0.1 mm 2 m/s 634 mmHg 97%
    17:00 0°C° 0.1 mm 1 m/s 634 mmHg 97%
    18:00 0°C° 0.1 mm 1 m/s 634 mmHg 98%
    19:00 0°C° 0.1 mm 1 m/s 634 mmHg 98%
    20:00 0°C° 0.1 mm 1 m/s 634 mmHg 98%
    21:00 0°C° 0.1 mm 1 m/s 634 mmHg 98%
    22:00 0°C° 0.3 mm 1 m/s 633 mmHg 98%
    23:00 +1°C° 0.3 mm 1 m/s 633 mmHg 98%

    9 Avril, Jeudi

    Heure Température Précipitation Vent Pression Humidité
    00:00 +1°C° 0.3 mm 1 m/s 632 mmHg 99%
    01:00 +1°C° 0 mm 1 m/s 632 mmHg 99%
    02:00 +1°C° 0 mm 1 m/s 631 mmHg 99%
    03:00 +1°C° 0 mm 1 m/s 631 mmHg 99%
    04:00 +1°C° 0 mm 1 m/s 631 mmHg 99%
    05:00 +1°C° 0 mm 1 m/s 630 mmHg 99%
    06:00 +1°C° 0 mm 1 m/s 630 mmHg 99%
    07:00 +1°C° 0 mm 1 m/s 630 mmHg 98%
    08:00 +1°C° 0 mm 1 m/s 630 mmHg 98%
    09:00 +1°C° 0 mm 1 m/s 630 mmHg 98%
    10:00 +2°C° 0 mm 1 m/s 630 mmHg 97%
    11:00 +2°C° 0 mm 1 m/s 629 mmHg 97%
    12:00 +2°C° 0 mm 1 m/s 629 mmHg 96%
    13:00 +3°C° 0 mm 1 m/s 629 mmHg 96%
    14:00 +2°C° 0 mm 2 m/s 628 mmHg 96%
    15:00 +2°C° 0 mm 2 m/s 628 mmHg 96%
    16:00 +1°C° 0 mm 2 m/s 628 mmHg 97%
    17:00 +1°C° 0 mm 2 m/s 628 mmHg 97%
    18:00 +1°C° 0 mm 2 m/s 628 mmHg 98%
    19:00 +1°C° 0 mm 2 m/s 628 mmHg 98%
    20:00 +1°C° 0 mm 2 m/s 628 mmHg 98%
    21:00 +1°C° 0 mm 2 m/s 629 mmHg 98%
    22:00 -1°C° 0 mm 2 m/s 628 mmHg 97%
    23:00 +1°C° 0 mm 1 m/s 628 mmHg 97%
    Voir plus